ROMMA est une association bénévole à but non lucratif. Votre soutien est indispensable : ADHERER à ROMMA ou FAIRE un DON

Chambon - (38, Isère)

Oisans (2460 m)   Longitude: 06° 10' 42" E   Latitude: 45° 01' 32" N Station partenaire n°803
 

Détail journalier du     <<     >>

Température Humidité Vent Dir Rafale Dir. rafale Neige 1 Neige 2
Heure (°C) (%) (km/h) (km/h) (cm) (cm)
01:00 -7.08811SSO24SSO158210
02:00 -7.0669SSE24SSE158210
03:00 -7.38810SSE24SSE158209
04:00 -7.78011SO16SO158209
05:00 -7.89811SO18OSO158209
06:00 -7.57111SO18SO158209
07:00 -7.88311OSO16OSO158209
08:00 -7.47310OSO15OSO158209
09:00 -7.2659OSO19OSO158209
10:00 -3.54310SO21SO158209
11:00 -5.45914SO27OSO158209
12:00 -5.46315OSO23OSO158209
13:00 -4.8787SO17SO158209
14:00 -4.38113SO19SO158209
15:00 -3.98214SO20SO158209
16:00 -3.98615SO23OSO158209
17:00 -5.09215OSO23OSO158209
18:00 -5.79814SO21OSO158209
19:00 -6.1978SO16SO158209
20:00 -6.0985OSO10OSO158209
21:00 -6.2988SO16SO157209
22:00 -6.5978SO15SO157209
23:00 -6.99711SO21SO157209
minuit -7.39511SO21SO157209

Graphique du 08-03-2019

 

Serveur OMMA